Location: ??????
(30.5519°N, 47.7720°E)
Time: 17:30:47
(UTC+00:00)

CZ-4 R/B - Pass Details

Date: 24 January 2021
Orbit: 531 x 599 km, 97.7° (Epoch: 02 March)

Event Time Altitude Azimuth Distance (km) Brightness Sun altitude
Rises 14:36:53 0° 131° (SE) 2,798 4.6 -4.6°
Reaches altitude 10° 14:39:42 10° 110° (ESE) 1,890 3.6 -5.2°
Maximum altitude 14:42:16 16° 71° (ENE) 1,513 2.9 -5.7°
Drops below altitude 10° 14:44:49 10° 32° (NNE) 1,871 3.6 -6.2°
Sets 14:47:35 0° 11° (N) 2,757 4.6 -6.8°
